Regional Weather Roundup
Issued by NWS Sterling, VA

Home | Current Version | Previous Version | Text Only | Print | Product List | Glossary Off
Versions: 1 2 3 4 5 6 7 8 9 10 11 12 13 14 15 16 17 18 19 20 21 22 23 24 25 26 27

000
ASUS41 KLWX 010710
RWRLWX

REGIONAL WEATHER ROUNDUP
NATIONAL WEATHER SERVICE BALTIMORE MD/WASHINGTON DC
300 AM EDT SUN MAY 01 2016

Note: "FAIR" indicates few or no clouds below 12,000 feet
with no significant weather and/or obstructions to visibility.
 TC=TEMPERATURE CELSIUS

 * =Non NWS site. Station does not report precipitation (e.g. rain,
    snow, etc.), thunder, or fog.

DCZ001-MDZ009-015-VAZ040>042-051-053>054-010800-
WASHINGTON METRO

CITY           SKY/WX    TMP DP  RH WIND       PRES   REMARKS
WASHINGTON NAT LGT RAIN  52  49  89 SE7       30.16F
DULLES         LGT RAIN  52  51  97 SE7       30.14F
ANDREWS AFB    DRIZZLE   50  48  93 SE7       30.15F
FT BELVOIR     LGT RAIN  52  50  93 SE6       30.15F
QUANTICO       LGT RAIN  55  50  82 S13       30.17F
COLLEGE PARK*  CLOUDY    50  46  87 S3        30.15F
LEESBURG*      LGT RAIN  54  54 100 S10       30.14F
MANASSAS*      CLOUDY    54  52  94 S6        30.15F
GAITHERSBURG*  CLOUDY    52  46  82 SE7       30.18F

$$

MDZ006>007-011-014-010800-
BALTIMORE METRO

CITY           SKY/WX    TMP DP  RH WIND       PRES   REMARKS
BWI AIRPORT    LGT RAIN  50  46  86 VRB5      30.16F
MD SCIENCE CTR   N/A     52  44  74 MISG      30.16F
MARTIN STATE   DRIZZLE   52  46  82 SE12      30.18S
ANNAPOLIS      CLOUDY    52  45  77 MISG      30.15F
FORT MEADE*    CLOUDY    48  46  93 CALM      30.18F

$$

MDZ012-015-019>023-010800-
MARYLAND EASTERN SHORE

CITY           SKY/WX    TMP DP  RH WIND       PRES   REMARKS
OCEAN CITY     CLOUDY    51  46  83 E5        30.18F
SALISBURY      CLOUDY    49  47  93 E3        30.17F
CAMBRIDGE*     CLOUDY    48  45  87 CALM      30.16F
EASTON*        CLOUDY   N/A N/A N/A SE5       30.20F

$$

MDZ017>025-010800-
SOUTHERN MARYLAND

CITY           SKY/WX    TMP DP  RH WIND       PRES   REMARKS
PATUXENT RIVER CLOUDY    54  46  74 SE9       30.15F
ST INIGOES       N/A    N/A N/A N/A MISG        N/A
LEONARDTOWN*   CLOUDY    52  46  82 CALM      30.17F

$$

MDZ003>005-010800-
NORTH CENTRAL MARYLAND

CITY           SKY/WX    TMP DP  RH WIND       PRES   REMARKS
FREDERICK*     DRIZZLE   50  50 100 SE5       30.15F
HAGERSTOWN APT LGT RAIN  52  49  89 S10       30.09F FOG
WESTMINSTER*   LGT RAIN  48  46  93 SE9G16    30.12F

$$

MDZ501>502-010800-
WESTERN MARYLAND

CITY           SKY/WX    TMP DP  RH WIND       PRES   REMARKS
OAKLAND*       FOG       46  46 100 SE12      30.01F VSB 3/4
CUMBERLAND*    CLOUDY    52  52 100 S3        30.09F

$$

VAZ025>031-010800-
SHENANDOAH VALLEY

CITY           SKY/WX    TMP DP  RH WIND       PRES   REMARKS
WINCHESTER*    LGT RAIN  52  50  93 S12G17    30.08F
FRONT ROYAL*   CLOUDY    52  50  93 S7        30.08F
LURAY*         RAIN      52  52 100 SW8       30.09F
NEW MARKET*    CLOUDY    53  52  95 SW5       30.08F
STAUNTON*      RAIN      55  55 100 S3        30.12F
WAYNESBORO*    CLOUDY    51  50  96 MISG      30.11F

$$

WVZ021-048>050-054>055-010800-
EASTERN WEST VIRGINIA PANHANDLE

CITY           SKY/WX    TMP DP  RH WIND       PRES   REMARKS
MARTINSBURG    LGT RAIN  51  50  96 S8        30.09F
PETERSBURG*    RAIN      57  54  89 SE6       30.05F

$$

VAZ036>039-050-010800-
CENTRAL FOOTHILLS

CITY           SKY/WX    TMP DP  RH WIND       PRES   REMARKS
CHARLOTTESVILL LGT RAIN  54  51  90 S6        30.12F FOG
CULPEPER*      DRIZZLE   53  53  99 S3        30.15F
ORANGE*        RAIN      54  54 100 CALM      30.16F
GORDONSVILLE*  CLOUDY    53  53 100 CALM      30.13F FOG
WARRENTON*     RAIN      53  48  84 S5        30.14F

$$

VAZ055>057-010800-
NORTH AND CENTRAL PIEDMONT

CITY           SKY/WX    TMP DP  RH WIND       PRES   REMARKS
FREDERICKSBRG* LGT RAIN  53  53 100 CALM      30.15F
STAFFORD*      DRIZZLE   52  51  95 SE3       30.19F

$$

NCZ024-NYZ072-PAZ021-071-VAZ022-071-010800-
OTHER REGIONAL OBSERVATIONS

CITY           SKY/WX    TMP DP  RH WIND       PRES   REMARKS
NEW YORK CITY  CLOUDY    50  33  52 SE6       30.22F
PHILADELPHIA   CLOUDY    50  38  63 S5        30.18F
PITTSBURGH     LGT RAIN  55  52  89 SE6       29.92F
ROANOKE        LGT RAIN  54  53  97 SE7       30.13F
RICHMOND       CLOUDY    53  50  89 E3        30.14F
RALEIGH        CLOUDY    60  56  86 SE6       30.13S

$$

ANZ530>537-010800-
MARINE OBSERVATIONS

STATION/POSITION TIME  TEMP    WIND        PRES
                       AIR SEA DIR/SP/G
                 (UTC) (F)     (DEG/KT/KT) (MB)
THOMAS PT LIGHT  0700   53 57  160/ 14/ 16 1022.2F
BALT KEY BRIDGE  0600   53     130/ 13/ 15 1021.2F
COVE POINT       0600   52     140/ 10/ 12 1022.3F
LEWISETTA        0600   55 60  140/  8/ 10 1021.2F
SOLOMONS ISLAND  0600   54 59  120/  9/ 10   N/A
PINEY POINT      0600          140/ 12/ 14   N/A

$$





USA.gov is the U.S. government's official web portal to all federal, state and local government web resources and services.